Regional Weather Roundup
Issued by NWS

Home | Current Version | Previous Version | Graphics & Text | Print | Product List | Glossary On
Versions: 1 2 3 4 5 6 7 8 9 10 11 12 13 14 15 16 17 18 19 20 21 22 23 24 25 26 27 28 29 30 31 32 33 34 35 36 37 38 39 40 41 42 43 44 45 46 47 48 49 50
000
ASUS43 KFSD 261902
RWRSD

WEATHER ROUNDUP FOR SOUTH DAKOTA
NATIONAL WEATHER SERVICE SIOUX FALLS SD
100 PM CST THU FEB 26 2015

NOTE: "FAIR" INDICATES FEW OR NO CLOUDS BELOW 12,000 FEET WITH NO
SIGNIFICANT WEATHER AND/OR OBSTRUCTIONS TO VISIBILITY.


SDZ001>005-009-010-012>017-262000-
NORTHWEST AND NORTH CENTRAL SOUTH DAKOTA

CITY           SKY/WX    TMP DP  RH WIND       PRES   REMARKS
BUFFALO          N/A      6  -7  54 N10       30.38F WCI  -9
FAITH            N/A      9  -5  53 N9        30.47F WCI  -4
MOBRIDGE       SUNNY      5  -6  60 NW8       30.53F WCI  -8
$$

SDZ012>016-024>037-041>051-057-063-072>074-262000-
SOUTHWEST AND SOUTH CENTRAL SOUTH DAKOTA

CITY           SKY/WX    TMP DP  RH WIND       PRES   REMARKS
RAPID CTY ARPT SUNNY      6  -1  73 N16       30.42S WCI -12
PIERRE         SUNNY      8  -6  52 NW10      30.54F WCI  -6
CUSTER         SUNNY      9  -2  61 VRB7      30.14S WCI  -2
PHILIP         MOSUNNY   11  -2  56 MISG      30.52S
PINE RIDGE     CLOUDY    10   0  63 N13       30.40S WCI  -5
WINNER         CLOUDY     8  -4  58 NW14      30.51F WCI  -8
$$

SDZ004>011-016>023-039-040-262000-
NORTHEAST SOUTH DAKOTA

CITY           SKY/WX    TMP DP  RH WIND       PRES   REMARKS
ABERDEEN       SUNNY      2  -8  63 N15       30.57F WCI -17
WATERTOWN      CLOUDY     0  -9  65 N17       30.46F WCI -21
SISSETON         N/A      1  -7  68 N17       30.54F WCI -19
$$

SDZ017-020-022-023-036>040-048>070-262000-
SOUTHEAST SOUTH DAKOTA

CITY           SKY/WX    TMP DP  RH WIND       PRES   REMARKS
SIOUX FALLS    MOSUNNY    4  -6  63 N17       30.50F WCI -16
HURON          SUNNY      3  -7  63 NW13      30.56F WCI -14
MITCHELL       SUNNY      6  -4  63 N15G21    30.57S WCI -12
YANKTON        MOSUNNY    9   0  66 NW16G22   30.55F WCI  -9
$$

ABBREVIATIONS USED IN REMARKS
   TC - TEMPERATURE IN CELSIUS
  WCI - WIND CHILL INDEX
   HX - HEAT INDEX
  VSB - VISIBILITY



USA.gov is the U.S. government's official web portal to all federal, state and local government web resources and services.